KF6ILA Weather Reports


time (UTC)temp
F
wind
direction
speed
knots
gust
knots
rain 1hr
in
rain 24hr
in
rain mn
in
humidity
%
barometer
mb
20260904095433 58 265 12.2 20.0 0.00 0.00 0.00 49 1011.5
20260904094936 58 269 13.9 19.1 0.00 0.00 0.00 46 1011.6
20260904093942 58 272 13.9 20.9 0.00 0.00 0.00 45 1011.5
20260904092948 59 271 13.9 20.9 0.00 0.00 0.00 44 1011.5
20260904092451 59 268 13.9 22.6 0.00 0.00 0.00 41 1011.6
20260904091954 60 265 13.9 22.6 0.00 0.00 0.00 40 1011.7
20260904090504 59 268 14.8 20.9 0.00 0.00 0.00 39 1011.8
20260904084515 59 270 12.2 19.1 0.00 0.00 0.00 37 1012.1
20260904084018 59 268 12.2 20.0 0.00 0.00 0.00 37 1012.0
20260904083024 60 271 13.9 20.9 0.00 0.00 0.00 36 1012.1
20260904082527 60 272 13.9 20.9 0.00 0.00 0.00 34 1012.0
20260904081533 60 263 13.0 19.1 0.00 0.00 0.00 31 1012.3
20260904081036 60 256 13.0 20.0 0.00 0.00 0.00 30 1012.3
20260904080042 60 259 13.0 18.2 0.00 0.00 0.00 30 1012.3
20260904075048 60 250 12.2 20.9 0.00 0.00 0.00 31 1012.4
20260904074551 60 252 13.0 20.9 0.00 0.00 0.00 31 1012.5
20260904074054 60 253 14.8 20.9 0.00 0.00 0.00 31 1012.4
20260904073557 60 255 13.9 19.1 0.00 0.00 0.00 32 1012.5
20260904073100 60 252 13.0 19.1 0.00 0.00 0.00 30 1012.6
20260904072106 61 256 13.0 20.0 0.00 0.00 0.00 25 1012.7
20260904071609 61 255 13.0 20.0 0.00 0.00 0.00 23 1012.7
20260904071112 61 252 14.8 20.0 0.00 0.00 0.00 22 1012.7
20260904070615 61 253 13.0 19.1 0.00 0.00 0.00 21 1012.7
20260904070118 61 255 13.0 18.2 0.00 0.00 0.00 20 1012.7
20260904065621 61 254 12.2 20.0 0.00 0.00 0.00 19 1012.7
20260904065124 62 253 13.9 20.0 0.00 0.00 0.00 19 1012.6
20260904064627 62 248 13.0 18.2 0.00 0.00 0.00 19 1012.6
20260904064130 62 241 13.0 18.2 0.00 0.00 0.00 19 1012.5
20260904063633 62 250 13.0 18.2 0.00 0.00 0.00 19 1012.5
20260904062639 62 252 12.2 16.5 0.00 0.00 0.00 19 1012.5
20260904062142 62 243 11.3 16.5 0.00 0.00 0.00 20 1012.5
20260904061148 62 248 12.2 17.4 0.00 0.00 0.00 20 1012.5
20260904060154 62 243 10.4 14.8 0.00 0.00 0.00 21 1012.5
20260904055200 62 247 10.4 15.6 0.00 0.00 0.00 21 1012.6
20260904053212 62 249 9.6 15.6 0.00 0.00 0.00 23 1012.7
20260904052715 62 250 10.4 15.6 0.00 0.00 0.00 23 1012.6
20260904052218 62 250 9.6 15.6 0.00 0.00 0.00 23 1012.6
20260904051721 63 251 10.4 15.6 0.00 0.00 0.00 23 1012.5
20260904051224 63 254 11.3 17.4 0.00 0.00 0.00 23 1012.6
20260904050727 63 247 12.2 18.2 0.00 0.00 0.00 23 1012.6
20260904050230 63 249 13.0 20.9 0.00 0.00 0.00 23 1012.5
20260904044739 63 259 13.9 22.6 0.00 0.00 0.00 24 1013.4
20260904043248 63 254 15.6 20.0 0.00 0.00 0.00 24 1013.4
20260904042751 63 251 14.8 20.0 0.00 0.00 0.00 24 1013.3
20260904041757 62 250 12.2 16.5 0.00 0.00 0.00 29 1013.3
20260904041300 61 253 10.4 14.8 0.00 0.00 0.00 32 1013.4
20260904040306 61 249 10.4 15.6 0.00 0.00 0.00 42 1013.4
20260904035312 61 249 10.4 14.8 0.00 0.00 0.00 47 1013.2
20260904034815 61 252 11.3 14.8 0.00 0.00 0.00 52 1013.1
20260904034318 60 248 10.4 15.6 0.00 0.00 0.00 60 1013.0
20260904033821 60 246 11.3 16.5 0.00 0.00 0.00 65 1013.1
20260904033324 60 246 10.4 16.5 0.00 0.00 0.00 69 1012.9
20260904032827 59 246 10.4 14.8 0.00 0.00 0.00 72 1013.0
20260904032330 59 247 9.6 16.5 0.00 0.00 0.00 74 1012.9
20260904031336 59 250 11.3 15.6 0.00 0.00 0.00 79 1012.6
20260904030839 58 254 11.3 14.8 0.00 0.00 0.00 80 1012.6
20260904025348 58 251 10.4 15.6 0.00 0.00 0.00 82 1012.5
20260904024851 58 252 10.4 15.6 0.00 0.00 0.00 82 1012.6
20260904024354 59 253 11.3 15.6 0.00 0.00 0.00 81 1012.5
20260904022406 60 258 13.9 16.5 0.00 0.00 0.00 79 1012.5
20260904021909 60 260 12.2 16.5 0.00 0.00 0.00 78 1012.4
20260904021412 60 249 10.4 16.5 0.00 0.00 0.00 77 1012.6
20260904020915 61 256 12.2 17.4 0.00 0.00 0.00 76 1012.6
20260904020418 61 258 13.0 17.4 0.00 0.00 0.00 75 1012.5
20260904015921 61 255 10.4 18.2 0.00 0.00 0.00 74 1012.6
20260904015424 62 259 13.9 18.2 0.00 0.00 0.00 73 1012.7
20260904014927 63 259 12.2 17.4 0.00 0.00 0.00 71 1012.7
20260904013933 64 260 12.2 19.1 0.00 0.00 0.00 68 1012.7
20260904012939 65 264 13.0 19.1 0.00 0.00 0.00 66 1012.8
20260904012442 65 260 13.0 19.1 0.00 0.00 0.00 65 1012.7
20260904011945 65 263 14.8 19.1 0.00 0.00 0.00 63 1012.8
20260904011448 66 259 14.8 20.0 0.00 0.00 0.00 62 1012.9
20260904010951 66 255 13.0 20.0 0.00 0.00 0.00 61 1012.9
20260904010454 67 261 14.8 20.0 0.00 0.00 0.00 60 1012.8
20260904005957 67 254 13.9 20.9 0.00 0.00 0.00 59 1012.9
20260904003512 69 250 12.2 19.1 0.00 0.00 0.00 55 1012.9
20260904002518 69 256 14.8 20.9 0.00 0.00 0.00 54 1012.9
20260904002021 69 257 15.6 20.9 0.00 0.00 0.00 54 1012.8
20260904001524 69 253 15.6 20.9 0.00 0.00 0.00 53 1012.9
20260904001027 70 251 13.0 20.0 0.00 0.00 0.00 52 1012.8
20260904000530 70 261 13.9 20.9 0.00 0.00 0.00 52
20260903235536 71 252 12.2 20.0 0.00 0.00 0.00 52 1012.8
20260903235039 72 267 13.0 20.9 0.00 0.00 0.00 51 1012.7
20260903234542 72 252 12.2 20.9 0.00 0.00 0.00 51 1012.6
20260903233548 71 247 14.8 20.9 0.00 0.00 0.00 52 1012.9
20260903232553 72 255 16.5 20.9 0.00 0.00 0.00 51 1013.0
20260903232057 72 255 13.0 20.9 0.00 0.00 0.00 49 1013.0
20260903231600 72 252 14.8 21.7 0.00 0.00 0.00 50 1013.0
20260903230606 72 255 14.8 21.7 0.00 0.00 0.00 49 1013.2
20260903230109 72 280 12.2 22.6 0.00 0.00 0.00 52 1013.1
20260903225612 0 258 17.4 22.6 0.00 0.00 0.00
20260903225115 73 261 15.6 21.7 0.00 0.00 0.00 50 1013.2
20260903224120 74 286 13.0 18.2 0.00 0.00 0.00 49 1013.3
20260903223624 74 284 13.0 18.2 0.00 0.00 0.00 48 1013.5
20260903223126 74 257 12.2 22.6 0.00 0.00 0.00 47 1013.8
20260903222630 74 262 14.8 22.6 0.00 0.00 0.00 46 1013.6
20260903222133 74 253 12.2 20.9 0.00 0.00 0.00 46 1013.9
20260903221636 75 245 13.0 20.0 0.00 0.00 0.00 43 1013.8
20260903214654 76 257 12.2 19.1 0.00 0.00 0.00 35 1014.1
20260903214157 75 261 10.4 20.9 0.00 0.00 0.00 34 1014.2
20260903213700 75 238 13.9 20.9 0.00 0.00 0.00 33 1014.3
20260903213203 75 252 11.3 20.0 0.00 0.00 0.00 32 1014.1
20260903212706 76 265 11.3 20.0 0.00 0.00 0.00 33 1014.3
20260903211712 76 258 13.0 20.9 0.00 0.00 0.00 32 1014.3
20260903211215 76 255 9.6 22.6 0.00 0.00 0.00 30 1014.2
20260903204730 75 261 7.8 20.9 0.00 0.00 0.00 30 1014.3
20260903203239 75 237 12.2 20.9 0.00 0.00 0.00 29 1014.6
20260903202742 75 264 13.9 20.0 0.00 0.00 0.00 29 1014.6
20260903201335 75 245 11.3 19.1 0.00 0.00 0.00 29 1014.6
20260903201251 75 245 11.3 19.1 0.00 0.00 0.00 29 1014.6
20260903200257 74 277 8.7 20.9 0.00 0.00 0.00 29 1014.6
20260903195800 74 250 13.0 20.9 0.00 0.00 0.00 29 1014.8
20260903195306 74 259 12.2 20.9 0.00 0.00 0.00 29 1015.0
20260903194806 74 263 15.6 20.9 0.00 0.00 0.00 28 1014.9
20260903194309 74 272 11.3 20.9 0.00 0.00 0.00 27 1014.8
20260903193812 74 288 11.3 20.0 0.00 0.00 0.00 27 1014.8
20260903193315 74 255 11.3 20.9 0.00 0.00 0.00 27 1014.8
20260903192818 74 254 15.6 20.9 0.00 0.00 0.00 27 1015.1
20260903192321 74 270 11.3 21.7 0.00 0.00 0.00 27 1014.9
20260903191824 74 239 9.6 21.7 0.00 0.00 0.00 26 1015.2
20260903190830 74 236 13.0 19.1 0.00 0.00 0.00 23 1015.3
20260903185836 74 244 13.9 20.0 0.00 0.00 0.00
20260903185339 74 253 11.3 18.2 0.00 0.00 0.00 24 1015.4
20260903184842 73 250 11.3 20.0 0.00 0.00 0.00 24 1015.4
20260903184345 73 237 13.0 20.0 0.00 0.00 0.00 24 1015.5
20260903183848 73 248 12.2 20.0 0.00 0.00 0.00 26 1015.4
20260903183351 73 277 11.3 19.1 0.00 0.00 0.00 26 1015.5
20260903182854 73 271 10.4 19.1 0.00 0.00 0.00 25 1015.7
20260903181900 73 274 12.2 19.1 0.00 0.00 0.00 26 1015.5
20260903180906 73 250 12.2 18.2 0.00 0.00 0.00 25 1015.8
20260903175415 72 254 7.8 17.4 0.00 0.00 0.00 27 1015.9
20260903174917 72 255 10.4 17.4 0.00 0.00 0.00 26 1015.8
20260903173427 71 229 9.6 17.4 0.00 0.00 0.00 27 1015.8
20260903172930 71 259 11.3 17.4 0.00 0.00 0.00 27 1015.8
20260903171936 69 255 11.3 20.0 0.00 0.00 0.00 29 1015.8
20260903171439 69 254 13.0 20.0 0.00 0.00 0.00 28 1015.7
20260903170942 69 265 10.4 20.0 0.00 0.00 0.00 29 1015.7
20260903165947 68 265 13.9 19.1 0.00 0.00 0.00 28 1015.7
20260903165451 68 253 11.3 18.2 0.00 0.00 0.00 30 1015.7
20260903164954 67 251 12.2 19.1 0.00 0.00 0.00 30 1015.7
20260903164457 67 245 12.2 20.0 0.00 0.00 0.00 30 1015.7
20260903163502 67 252 13.0 20.9 0.00 0.00 0.00 31 1015.6
20260903163006 66 253 12.2 17.4 0.00 0.00 0.00 31 1015.5
20260903162508 66 259 11.3 20.9 0.00 0.00 0.00 32 1015.5
20260903161514 66 272 12.2 18.2 0.00 0.00 0.00 31 1015.5
20260903155030 65 250 11.3 19.1 0.00 0.00 0.00 30 1015.3
20260903154533 65 254 11.3 19.1 0.00 0.00 0.00 30 1015.3
20260903154036 65 243 10.4 16.5 0.00 0.00 0.00 30 1015.4
20260903153539 64 258 11.3 18.2 0.00 0.00 0.00 30 1015.3
20260903153042 64 249 8.7 18.2 0.00 0.00 0.00 30 1015.3
20260903152734 64 261 11.3 19.1 0.00 0.00 0.00 30 1015.3
20260903152544 64 261 11.3 19.1 0.00 0.00 0.00 30 1015.3
20260903152048 64 250 12.2 19.1 0.00 0.00 0.00 30 1015.4
20260903151054 63 252 13.0 18.2 0.00 0.00 0.00 29 1014.5
20260903150557 63 252 11.3 18.2 0.00 0.00 0.00 28 1014.5
20260903150100 63 249 11.3 18.2 0.00 0.00 0.00 28 1014.5
20260903145106 62 248 10.4 18.2 0.00 0.00 0.00 24 1014.4
20260903144608 62 256 12.2 18.2 0.00 0.00 0.00 22 1014.4
20260903144112 62 246 13.9 18.2 0.00 0.00 0.00 22 1014.4
20260903143614 61 242 13.0 17.4 0.00 0.00 0.00 22 1014.3
20260903143117 61 246 11.3 19.1 0.00 0.00 0.00 21 1014.3
20260903142620 61 251 11.3 19.1 0.00 0.00 0.00 23 1014.1
20260903142123 61 248 13.0 20.0 0.00 0.00 0.00 21 1014.1
20260903141628 61 250 13.0 20.0 0.00 0.00 0.00 20 1014.0
20260903141129 61 250 13.9 20.0 0.00 0.00 0.00 18 1014.0
20260903140632 61 254 13.0 20.0 0.00 0.00 0.00 17 1013.9
20260903140135 61 252 13.9 20.0 0.00 0.00 0.00 18 1013.8
20260903135638 60 256 11.3 18.2 0.00 0.00 0.00 18 1013.7
20260903135141 60 263 13.0 18.2 0.00 0.00 0.00 18 1013.6
20260903134644 60 263 12.2 19.1 0.00 0.00 0.00 17 1013.5
20260903133650 60 259 13.9 20.0 0.00 0.00 0.00 17 1013.6
20260903132657 60 257 13.9 20.9 0.00 0.00 0.00 16 1013.6
20260903132159 60 259 13.9 20.9 0.00 0.00 0.00 16 1013.6
20260903131702 60 262 13.0 20.9 0.00 0.00 0.00 17 1013.5
20260903130708 60 261 13.0 17.4 0.00 0.00 0.00 17 1013.5
20260903130211 59 257 13.0 17.4 0.00 0.00 0.00 17 1013.5
20260903125714 59 255 12.2 20.0 0.00 0.00 0.00 16 1013.5
20260903125217 59 253 13.9 20.0 0.00 0.00 0.00 14 1013.5
20260903124720 60 254 13.9 19.1 0.00 0.00 0.00 14 1013.6
20260903124224 60 254 13.0 21.7 0.00 0.00 0.00 15 1013.6
20260903123726 60 256 14.8 21.7 0.00 0.00 0.00 15 1013.4
20260903123229 60 262 12.2 19.1 0.00 0.00 0.00 14 1013.3
20260903122732 59 258 13.0 19.1 0.00 0.00 0.00 13 1013.4
20260903122235 59 255 11.3 19.1 0.00 0.00 0.00 12 1013.3
20260903121738 60 253 12.2 19.1 0.00 0.00 0.00 12 1013.4
20260903121241 60 257 13.0 20.0 0.00 0.00 0.00 13 1013.4
20260903120744 60 257 13.9 20.0 0.00 0.00 0.00 14 1013.3
20260903120247 59 255 13.9 20.0 0.00 0.00 0.00 15 1013.4
20260903115750 59 259 12.2 19.1 0.00 0.00 0.00 13 1013.3
20260903115253 59 259 13.0 19.1 0.00 0.00 0.00 13 1013.5
20260903114756 59 255 11.3 19.1 0.00 0.00 0.00 12 1013.6
20260903114259 59 255 12.2 19.1 0.00 0.00 0.00 11 1013.6
20260903113803 59 250 13.0 19.1 0.00 0.00 0.00 11 1013.6
20260903113305 59 248 13.0 19.1 0.00 0.00 0.00 10 1013.6
20260903112809 59 249 13.9 20.9 0.00 0.00 0.00 10 1013.6
20260903112311 59 246 13.0 20.9 0.00 0.00 0.00 11 1013.6
20260903111814 59 246 13.0 20.9 0.00 0.00 0.00 10 1013.6
20260903111317 59 250 13.0 20.9 0.00 0.00 0.00 10 1013.6
20260903110820 59 248 14.8 20.0 0.00 0.00 0.00 10 1013.7
20260903110323 59 246 15.6 20.0 0.00 0.00 0.00 10 1013.8
20260903105826 59 245 15.6 20.0 0.00 0.00 0.00 10 1013.8
20260903105329 59 244 15.6 20.9 0.00 0.00 0.00 10 1013.9
20260903104832 59 245 14.8 20.9 0.00 0.00 0.00 10 1013.7
20260903104335 59 245 16.5 20.9 0.00 0.00 0.00 10 1013.9
20260903103838 59 246 14.8 20.0 0.00 0.00 0.00 10 1013.9
20260903103341 59 246 14.8 19.1 0.00 0.00 0.00 10 1013.9
20260903102844 59 247 14.8 20.9 0.00 0.00 0.00 10 1013.9
20260903102347 59 247 14.8 20.9 0.00 0.00 0.00 10 1013.8
20260903101850 59 249 14.8 19.1 0.00 0.00 0.00 10 1013.9
20260903101353 59 248 13.9 19.1 0.00 0.00 0.00 10 1014.0
20260903100856 59 253 13.0 20.9 0.00 0.00 0.00 10 1014.1
20260903100359 60 251 14.8 20.9 0.00 0.00 0.00 10 1014.0
20260903095902 60 252 13.9 21.7 0.00 0.00 0.00 10 1014.0